Temperature
23 24 24 24 24 24 24 24 23 23 23 22 22 22 22 21 20 20 20 20 19 18 18 17 17 16 16 16 15 15 15 15 15 15 14 14 14 14 14 14 14 14 14 14
24 23 23 23 23 23 23 23 23 22 22 22 22 22 22 22 21 20 20 20 19 18 18 17 16 16 16 16 15 15 15 15 14 14 14 14 14 14 14 13 13 13 14 14
23 23 23 23 22 23 23 23 23 22 22 22 21 22 22 22 20 19 19 19 19 18 18 17 17 16 16 16 15 15 15 14 14 14 14 14 14 13 13 13 13 13 13 13
23 23 22 22 23 23 23 23 22 22 22 22 22 22 23 22 21 20 19 19 18 18 17 17 16 16 16 15 15 15 15 14 14 14 14 13 13 13 13 13 13 13 13 13
22 22 22 22 23 23 23 22 22 22 22 22 22 22 23 22 21 21 20 19 18 17 17 16 16 16 15 15 15 15 14 14 14 14 13 13 13 12 12 12 12 12 12 12
22 22 22 22 22 22 21 22 21 21 22 21 22 22 22 22 22 21 20 19 18 17 16 16 15 15 15 15 15 15 14 14 14 13 13 13 12 12 12 12 12 12 12 12
22 22 22 22 22 21 22 22 22 22 21 22 22 21 22 22 21 21 20 19 18 17 16 16 15 15 15 15 15 14 14 14 13 13 13 12 12 12 12 12 11 11 11 11
22 22 22 22 22 22 22 23 22 21 22 22 21 22 22 21 20 19 19 18 17 16 16 15 15 15 15 14 14 14 14 13 13 13 12 12 12 11 11 11 11 11 11 11
22 22 21 21 21 22 22 22 22 22 22 21 22 22 22 20 20 19 19 18 17 16 16 15 14 14 14 14 14 14 13 13 13 13 12 12 11 11 11 11 11 11 11 11
22 21 21 20 21 20 21 22 22 21 21 21 22 22 22 21 21 20 19 18 17 16 15 15 14 14 14 14 14 13 13 13 13 12 12 11 11 11 11 11 11 11 10 11
21 21 21 21 21 21 20 20 21 21 21 21 21 22 22 21 21 20 19 18 17 16 15 15 14 14 14 14 13 13 13 13 12 12 12 11 11 11 10 10 10 10 10 10
20 21 21 21 20 20 21 21 21 21 21 21 21 21 21 21 20 19 19 17 17 16 15 14 14 14 13 13 13 13 13 12 12 12 11 11 11 10 10 10 10 10 10 10
19 20 20 20 20 19 20 20 20 21 21 21 20 21 20 20 20 18 18 17 16 15 15 14 14 14 13 13 13 13 12 12 12 11 11 11 10 10 10 10 9 10 10 10
19 20 20 20 20 20 20 19 19 19 20 20 20 21 21 20 20 18 17 16 16 15 15 14 14 13 13 13 12 12 12 12 12 11 11 10 10 10 10 9 9 9 9 9
19 20 20 19 19 19 19 19 18 19 20 20 20 20 21 21 20 18 17 16 15 15 14 14 14 13 13 12 12 12 12 11 11 11 10 10 10 10 9 9 9 9 9 9
18 19 19 18 18 18 18 18 18 18 19 19 19 19 20 19 18 18 17 16 15 15 14 13 13 13 13 12 12 12 11 11 11 11 10 10 10 9 9 9 9 9 9 8
18 18 18 19 18 18 18 19 18 18 18 19 19 19 19 18 17 17 16 15 15 14 14 13 13 13 13 12 12 12 11 11 11 10 10 10 10 9 9 9 8 8 8 8
18 18 18 18 17 17 19 18 18 18 18 18 18 18 18 17 16 15 14 14 14 13 13 13 12 12 12 12 12 11 11 11 10 10 10 9 9 9 9 8 8 8 8 8
17 18 17 18 18 18 18 18 17 18 18 18 18 18 17 15 15 15 14 13 13 13 12 12 12 12 12 11 11 11 11 10 10 10 9 9 9 9 8 8 8 8 8 7
15 17 17 17 17 18 19 18 16 17 18 17 17 17 16 15 17 17 14 13 13 12 12 12 12 11 11 11 11 11 11 10 10 10 9 9 9 9 8 8 8 7 7 7
16 16 16 17 17 18 18 16 16 17 18 16 16 16 15 16 16 14 13 12 12 12 12 12 11 11 11 11 10 10 10 10 10 9 9 9 8 8 8 8 7 7 7 7
17 16 16 17 16 17 16 16 17 17 16 15 15 14 14 14 13 13 12 12 12 11 11 11 11 11 11 10 10 10 10 10 9 9 9 8 8 8 8 7 7 7 7 6
16 17 17 17 17 16 15 15 15 14 15 14 14 13 13 13 12 12 12 11 11 11 11 11 11 10 10 10 10 10 10 9 9 9 8 8 8 7 7 7 7 6 6 6
16 14 15 16 16 15 14 14 13 13 13 13 13 12 12 12 12 11 11 11 11 10 10 10 10 10 10 10 9 9 9 9 8 8 8 8 7 7 7 7 6 6 6 6
15 14 15 15 16 15 14 13 13 13 12 12 12 12 12 11 11 11 11 10 10 10 10 10 10 9 9 9 9 9 8 8 8 7 7 7 7 7 6 6 6 6 5 6
14 14 15 15 16 15 15 13 12 12 12 12 11 11 11 11 11 10 10 10 9 9 9 9 9 9 9 8 8 8 8 8 7 7 7 7 6 6 6 5 5 5 5 5
Wind_Speed
4 6 6 5 5 4 4 5 5 2 2 5 6 6 6 7 8 8 7 7 6 5 4 4 3 3 2 2 1 1 1 1 2 1 1 1 1 1 2 2 3 2 2 2
6 7 4 3 4 5 6 6 5 3 2 4 5 6 5 6 8 8 8 7 7 6 5 5 4 4 3 2 2 2 2 2 2 1 0 1 1 1 2 2 2 2 2 1
7 2 3 5 6 7 7 7 5 3 2 4 4 6 6 5 6 6 7 7 6 6 6 6 5 4 4 3 2 2 2 2 2 2 1 2 2 2 2 1 2 2 2 2
4 3 4 6 6 7 6 4 5 5 6 4 4 5 5 5 6 6 6 6 6 5 6 5 5 5 4 4 3 3 3 3 2 3 2 2 1 1 1 1 1 1 2 2
4 3 5 6 4 5 2 2 5 5 6 6 7 7 3 4 5 6 6 6 5 5 5 6 6 5 4 4 4 3 4 4 3 3 3 2 2 1 1 1 2 1 2 2
3 2 2 2 2 3 4 5 4 4 5 7 6 6 4 3 4 3 5 5 5 5 5 5 5 5 5 5 5 4 4 4 3 3 2 2 2 2 2 2 2 1 1 2
4 4 3 2 4 5 6 5 4 5 5 4 3 5 4 1 1 2 3 5 5 5 5 6 6 6 6 5 5 5 5 4 3 3 2 2 2 1 1 1 1 1 1 1
5 5 4 3 4 4 6 7 5 4 4 3 4 6 1 2 0 1 2 4 5 5 5 6 6 6 6 5 5 5 4 4 3 3 2 2 2 1 1 1 1 1 1 1
4 3 3 1 2 4 5 6 4 6 6 6 5 3 2 3 2 2 3 5 5 6 5 5 6 6 5 5 5 5 5 4 3 3 2 2 1 1 1 1 1 1 1 1
3 3 3 3 4 1 3 3 4 6 5 6 5 6 3 5 4 4 4 5 5 5 5 5 5 5 5 5 5 4 4 4 3 3 2 1 1 0 0 1 1 1 1 1
5 5 4 5 5 5 4 5 5 6 6 6 5 3 1 2 3 3 4 4 5 5 5 5 5 5 5 5 5 5 4 4 3 3 3 2 1 1 1 0 1 1 1 1
4 4 5 5 1 1 4 5 7 7 7 7 7 4 3 2 2 3 3 4 4 4 4 4 5 5 5 5 5 5 5 4 4 3 3 3 2 2 1 1 1 2 2 2
4 4 5 4 5 5 5 5 6 7 7 8 9 4 4 2 2 2 3 4 4 4 4 4 4 5 5 5 5 6 5 5 4 3 3 3 2 2 2 1 1 1 2 2
3 6 7 7 3 3 5 7 8 9 9 10 11 10 5 4 3 3 3 4 4 4 4 4 4 5 5 5 6 6 5 5 4 4 4 3 3 3 2 2 1 2 2 2
3 6 7 7 5 6 8 9 10 12 13 12 11 11 9 7 5 4 3 4 4 4 4 4 5 5 5 5 5 5 5 5 5 5 4 4 3 3 3 2 2 2 2 2
3 5 5 7 6 7 10 11 12 13 13 14 13 13 7 4 3 3 4 4 4 3 3 4 4 5 5 5 5 6 6 6 5 5 5 4 3 3 3 3 3 3 3 3
5 5 5 6 5 7 10 10 11 10 10 10 11 9 4 3 4 4 4 4 4 3 3 4 4 4 4 5 5 6 5 6 6 6 5 4 4 4 4 3 3 4 3 3
7 6 5 5 5 8 2 1 5 8 9 9 8 6 4 3 3 3 3 3 3 3 3 3 3 3 4 4 4 4 5 5 6 6 5 5 4 4 4 4 4 4 4 4
7 7 5 5 7 8 5 3 4 6 7 6 7 5 3 2 2 3 1 2 3 3 3 3 3 3 3 3 4 4 4 5 5 5 6 5 5 5 5 5 5 4 4 4
5 7 7 6 6 6 2 3 2 4 6 2 3 4 3 3 5 2 1 2 2 1 1 1 1 2 3 3 3 4 4 4 5 5 5 5 5 5 5 5 5 4 4 4
6 6 9 10 8 6 1 3 4 6 1 2 2 2 3 4 4 2 1 1 1 1 0 1 1 2 2 3 4 4 4 5 5 4 5 4 5 5 5 5 4 4 3 3
7 7 8 8 9 6 4 5 5 2 3 1 2 2 3 3 2 1 1 1 1 1 1 1 1 2 2 3 4 5 5 4 4 4 4 4 4 4 4 4 4 4 3 3
8 7 5 6 5 1 3 3 2 2 2 2 2 2 3 3 3 3 2 2 2 2 2 1 2 2 2 3 4 5 4 3 4 4 4 4 4 4 4 4 4 4 3 3
6 5 6 7 7 6 5 5 4 4 5 3 3 4 4 4 4 4 4 3 3 3 2 2 2 3 3 3 4 4 4 3 4 4 4 4 4 4 4 3 4 4 4 3
6 6 7 10 8 6 6 7 6 4 4 4 4 4 5 5 5 5 4 4 4 3 3 3 3 3 4 3 3 3 3 3 4 4 4 3 4 4 4 4 3 4 3 3
8 9 9 9 8 7 7 5 5 5 5 5 5 5 5 5 5 5 5 4 4 4 4 4 4 3 3 3 3 3 3 4 4 4 4 3 3 3 3 3 3 2 3 2
Wind_Direction
189 207 213 217 229 256 232 225 225 211 190 213 229 234 222 204 209 216 214 208 204 202 192 177 166 157 142 127 125 112 113 110 109 114 128 115 107 85 69 53 50 71 68 44
195 212 227 227 203 216 223 225 223 189 180 223 237 251 241 216 216 222 221 214 210 203 193 180 172 161 147 137 135 123 113 103 102 84 101 129 110 90 76 55 51 54 66 58
216 173 173 192 192 208 223 234 231 221 199 212 247 248 221 210 210 218 226 225 219 213 202 187 179 168 159 148 139 128 113 106 97 95 85 92 101 94 81 55 49 43 49 51
218 205 196 205 212 230 230 225 223 214 227 235 234 266 220 207 207 215 218 218 219 212 203 189 180 173 171 160 147 136 121 111 99 98 93 101 92 92 50 10 37 41 50 53
194 192 209 219 226 230 238 177 203 222 246 258 231 257 231 181 224 222 213 211 212 203 193 185 179 175 168 154 144 136 123 116 106 99 100 103 91 81 66 42 42 41 60 52
215 188 237 234 200 192 157 156 165 206 238 248 233 246 257 194 223 220 205 203 199 190 182 177 170 163 152 142 137 133 127 113 104 104 105 101 96 93 81 49 33 33 60 53
202 198 189 203 186 172 204 223 230 221 222 239 181 240 259 114 214 256 220 198 186 177 173 171 166 163 154 147 140 138 135 124 117 116 111 108 98 90 81 38 22 17 33 37
217 204 182 202 229 217 213 236 252 265 257 255 209 239 224 103 0 262 202 178 168 170 171 170 166 165 159 156 155 154 150 140 132 129 119 109 101 94 66 26 359 345 -0 11
231 203 132 156 235 235 214 226 266 275 273 268 240 231 234 168 166 149 151 159 167 170 173 172 168 167 165 165 167 169 167 161 155 152 141 122 107 89 43 355 345 342 347 350
250 236 173 158 172 135 267 221 221 242 259 260 249 244 228 178 167 153 159 168 170 170 173 174 173 173 170 167 171 175 176 176 173 172 170 158 157 207 334 341 354 336 331 332
234 239 199 190 215 211 180 203 229 243 256 267 268 253 115 194 183 186 176 177 178 179 179 178 177 175 170 170 173 178 182 181 178 182 181 186 189 208 229 279 322 311 307 303
212 243 237 223 171 287 231 230 229 246 248 251 268 271 110 187 195 203 200 191 185 184 183 180 177 177 177 181 181 183 185 188 189 191 192 200 196 206 222 256 276 285 297 304
184 222 231 210 191 193 212 217 230 249 261 249 250 251 127 182 211 213 214 209 197 190 187 188 185 188 189 188 191 191 195 196 194 195 199 206 209 213 218 227 243 270 281 284
217 234 242 255 279 230 229 221 222 233 246 251 248 260 252 250 247 235 220 208 206 201 195 198 200 199 197 195 198 200 204 199 196 199 208 211 218 219 222 225 234 250 259 267
229 245 244 260 269 256 252 246 232 235 248 258 265 267 271 275 267 248 224 207 203 202 204 205 206 206 203 202 205 206 205 202 199 203 211 214 214 214 221 223 234 242 248 256
226 245 247 254 252 250 254 249 242 242 249 255 263 269 275 279 265 242 226 214 212 212 211 210 209 210 210 207 209 209 208 206 204 206 208 207 214 214 220 230 236 242 249 254
209 228 246 260 259 262 255 242 234 234 235 243 254 264 258 245 254 250 239 228 231 230 223 217 214 217 217 215 212 213 211 206 207 211 212 205 210 215 222 231 236 239 245 252
219 223 238 253 251 247 260 155 233 238 245 249 255 261 255 265 280 270 251 241 249 246 240 238 231 224 222 215 211 206 203 205 209 214 215 212 212 216 221 228 234 239 242 242
224 220 227 236 251 266 253 216 215 234 249 245 241 244 239 230 236 238 243 246 253 251 247 238 234 231 217 207 199 196 203 208 211 215 218 216 216 219 221 228 235 238 241 245
197 221 229 230 245 257 238 156 199 243 245 200 227 233 221 221 249 256 199 253 260 266 258 242 232 220 217 209 196 202 210 217 222 223 226 224 222 223 226 229 234 234 237 246
187 204 222 234 243 257 222 156 185 229 273 118 216 235 223 242 288 345 313 259 284 295 281 229 225 230 226 221 212 220 228 235 237 234 226 220 223 226 227 228 228 226 228 238
206 208 216 225 235 245 137 169 214 296 34 164 231 243 240 262 301 305 280 262 262 274 266 240 247 257 244 230 226 235 246 248 235 226 222 219 221 223 221 217 218 217 216 225
222 226 230 226 242 354 173 222 269 293 268 264 250 255 249 257 266 271 268 266 257 255 252 256 264 270 253 237 237 245 251 242 227 223 224 223 222 219 215 211 210 212 219 230
218 225 236 246 250 249 245 245 251 258 262 265 257 257 250 255 261 262 261 259 258 253 249 252 258 265 263 253 246 249 246 229 223 226 226 224 221 218 213 213 216 220 225 233
231 211 234 249 254 256 247 242 245 256 261 264 269 269 262 260 263 260 257 254 251 246 245 247 252 262 268 261 251 243 230 218 221 224 221 220 218 214 212 214 222 227 232 241
225 226 238 256 260 258 262 252 242 244 255 262 269 276 273 265 264 262 262 259 253 249 249 250 253 260 265 260 253 246 230 221 219 219 217 217 217 216 214 215 223 227 240 245
Height
1512 1511 1511 1511 1511 1512 1513 1515 1517 1518 1519 1521 1521 1521 1522 1525 1528 1528 1529 1531 1532 1534 1535 1536 1537 1537 1537 1537 1538 1538 1538 1538 1537 1537 1537 1537 1537 1537 1537 1537 1537 1537 1537 1537
1510 1511 1511 1512 1513 1514 1514 1515 1516 1518 1520 1520 1520 1520 1519 1522 1524 1526 1527 1528 1530 1532 1533 1534 1535 1536 1536 1537 1537 1537 1537 1537 1537 1536 1537 1537 1536 1536 1536 1536 1536 1536 1536 1536
1508 1510 1511 1512 1513 1514 1514 1514 1515 1518 1520 1519 1521 1520 1517 1518 1522 1524 1525 1526 1528 1529 1531 1532 1533 1534 1535 1535 1536 1536 1537 1537 1536 1536 1536 1536 1536 1535 1536 1536 1535 1535 1535 1535
1508 1510 1511 1511 1511 1511 1513 1512 1514 1517 1519 1518 1521 1521 1513 1513 1517 1520 1522 1524 1525 1527 1528 1530 1531 1532 1533 1535 1535 1536 1536 1536 1536 1536 1535 1535 1535 1535 1535 1535 1535 1534 1534 1534
1508 1510 1510 1511 1510 1511 1511 1513 1514 1516 1516 1517 1516 1518 1509 1511 1514 1515 1518 1521 1523 1524 1526 1528 1529 1530 1532 1533 1534 1535 1535 1535 1535 1535 1535 1535 1535 1535 1535 1534 1534 1534 1534 1534
1508 1510 1510 1509 1511 1512 1513 1514 1515 1515 1515 1521 1513 1517 1512 1508 1510 1511 1515 1518 1521 1522 1524 1526 1527 1529 1530 1531 1532 1533 1534 1534 1534 1534 1534 1534 1534 1534 1534 1534 1533 1533 1533 1533
1509 1509 1510 1511 1511 1513 1512 1514 1519 1520 1521 1516 1512 1516 1510 1506 1509 1511 1513 1516 1519 1521 1522 1524 1526 1527 1528 1530 1531 1532 1533 1533 1534 1534 1534 1534 1534 1534 1534 1533 1533 1533 1532 1532
1510 1510 1508 1509 1509 1509 1509 1510 1518 1523 1519 1513 1513 1512 1505 1508 1510 1512 1513 1515 1517 1519 1521 1523 1524 1525 1527 1528 1529 1531 1532 1533 1533 1533 1534 1533 1533 1533 1533 1532 1532 1532 1532 1531
1506 1509 1508 1510 1510 1508 1509 1509 1507 1512 1513 1516 1507 1505 1504 1507 1509 1511 1512 1514 1516 1518 1520 1521 1523 1524 1525 1527 1528 1529 1531 1531 1532 1532 1533 1533 1532 1532 1532 1531 1531 1531 1530 1530
1504 1508 1507 1510 1511 1512 1509 1508 1511 1513 1518 1517 1509 1507 1503 1504 1506 1508 1511 1513 1515 1517 1519 1521 1522 1523 1524 1526 1527 1528 1529 1530 1531 1531 1531 1531 1531 1531 1530 1530 1529 1529 1529 1529
1505 1507 1508 1508 1508 1508 1512 1512 1510 1509 1509 1514 1514 1507 1498 1501 1503 1506 1508 1511 1514 1516 1517 1519 1520 1521 1522 1524 1525 1526 1528 1528 1529 1529 1529 1529 1529 1529 1529 1528 1528 1527 1527 1527
1506 1505 1505 1505 1507 1509 1507 1507 1508 1512 1510 1509 1510 1507 1499 1502 1504 1506 1508 1510 1512 1514 1516 1517 1519 1520 1521 1522 1523 1524 1525 1526 1527 1527 1527 1527 1527 1527 1527 1526 1526 1526 1525 1525
1507 1506 1509 1509 1511 1510 1508 1508 1508 1507 1507 1507 1511 1507 1500 1502 1504 1506 1508 1509 1510 1512 1514 1515 1516 1518 1519 1519 1521 1522 1523 1524 1524 1525 1525 1525 1525 1525 1525 1525 1524 1524 1523 1523
1507 1503 1505 1507 1503 1503 1506 1508 1509 1508 1508 1505 1503 1500 1498 1500 1502 1505 1506 1508 1509 1510 1511 1512 1514 1515 1516 1517 1518 1519 1520 1521 1521 1522 1523 1523 1523 1523 1523 1523 1522 1522 1521 1521
1506 1503 1501 1502 1503 1504 1504 1505 1506 1506 1502 1502 1497 1497 1496 1497 1501 1503 1505 1506 1507 1508 1509 1510 1511 1512 1513 1514 1515 1516 1517 1518 1518 1519 1520 1520 1520 1520 1520 1520 1519 1519 1519 1519
1505 1503 1503 1504 1503 1504 1504 1502 1502 1502 1501 1499 1498 1497 1495 1498 1500 1502 1503 1504 1505 1506 1507 1508 1509 1510 1511 1511 1512 1513 1513 1514 1515 1516 1516 1517 1517 1517 1517 1517 1517 1517 1516 1516
1503 1503 1504 1502 1502 1503 1500 1495 1496 1497 1496 1497 1496 1495 1496 1498 1500 1501 1502 1503 1503 1504 1504 1505 1506 1507 1508 1508 1509 1510 1510 1511 1512 1513 1513 1513 1514 1514 1514 1514 1514 1513 1513 1513
1501 1501 1501 1502 1505 1506 1492 1492 1493 1494 1495 1494 1493 1494 1497 1498 1500 1500 1501 1501 1502 1502 1502 1503 1503 1504 1505 1506 1506 1507 1507 1508 1508 1509 1509 1510 1510 1510 1511 1511 1511 1510 1510 1510
1501 1501 1501 1501 1500 1494 1491 1492 1493 1493 1492 1491 1492 1494 1496 1498 1498 1498 1499 1499 1500 1500 1500 1500 1501 1501 1502 1503 1503 1503 1504 1504 1505 1505 1506 1506 1507 1507 1507 1507 1507 1507 1507 1506
1502 1500 1499 1500 1501 1496 1488 1490 1492 1493 1490 1491 1492 1493 1495 1496 1494 1494 1497 1497 1498 1498 1498 1498 1498 1499 1499 1500 1500 1500 1501 1501 1501 1501 1502 1502 1503 1503 1503 1503 1503 1503 1503 1502
1498 1499 1498 1496 1495 1487 1486 1490 1493 1494 1488 1490 1491 1493 1494 1494 1494 1495 1495 1495 1496 1496 1496 1496 1496 1496 1496 1497 1497 1497 1497 1497 1497 1498 1498 1498 1499 1499 1500 1500 1500 1499 1499 1499
1490 1492 1492 1492 1493 1490 1488 1489 1489 1488 1489 1490 1491 1492 1493 1493 1493 1493 1493 1493 1494 1493 1494 1494 1493 1493 1493 1494 1494 1494 1494 1494 1494 1494 1494 1494 1495 1495 1495 1496 1496 1496 1495 1495
1486 1485 1484 1485 1485 1485 1487 1487 1489 1489 1489 1489 1490 1491 1491 1491 1491 1491 1491 1491 1491 1491 1491 1491 1491 1490 1490 1490 1490 1490 1490 1490 1490 1490 1490 1490 1491 1491 1491 1492 1492 1491 1491 1491
1484 1487 1486 1484 1482 1484 1486 1486 1487 1487 1488 1488 1488 1488 1488 1489 1489 1489 1489 1488 1488 1488 1488 1488 1488 1487 1487 1487 1487 1486 1486 1486 1486 1486 1486 1486 1487 1487 1487 1487 1487 1487 1487 1487
1481 1484 1482 1480 1480 1482 1483 1483 1484 1485 1485 1485 1485 1486 1486 1485 1485 1486 1486 1485 1485 1485 1485 1485 1485 1484 1484 1483 1483 1483 1483 1483 1482 1483 1482 1482 1483 1482 1483 1483 1483 1483 1483 1483
1479 1479 1478 1475 1476 1478 1479 1480 1481 1482 1482 1482 1482 1482 1482 1482 1482 1482 1482 1482 1481 1481 1482 1482 1481 1481 1480 1480 1480 1479 1479 1479 1479 1479 1479 1479 1479 1479 1479 1479 1479 1479 1479 1479